Location: Sobotiste
(48.7170°N, 17.4000°E)
Time: 16:03:42
(UTC+02:00)

Amateur Radio Satellites - All Passes

Search period start: 24 June 2017 15:33
Search period end: 25 June 2017 15:33
Location: Sobotiste, 48.7170°N, 17.4000°E

Satellite Date Start Highest point End Downlink Frequencies (MHz)
Time Altitude Azimuth
BEESAT 24 Jun 15:34:31 15:39:01 39° 98° (E) 15:43:29 436.000
AO-7 24 Jun 15:41:15 15:49:31 67° 254° (WSW) 15:57:52 .
ITAMSAT 1 24 Jun 15:47:32 15:52:36 53° 259° (W) 15:57:44 435.822/435.867
ISS 24 Jun 15:53:35 15:56:21 25° 217° (SW) 15:59:06 437.550
Tancredo 1 24 Jun 15:54:15 15:55:42 13° 223° (SW) 15:57:08 437.200
DX 1 24 Jun 16:02:40 16:04:21 12° 305° (NW) 16:06:01 434.975-435.025
DOVE 4 24 Jun 16:07:11 16:09:16 14° 57° (ENE) 16:11:24 437.250
UKube-1 24 Jun 16:23:35 16:24:37 11° 306° (NW) 16:25:39 .
PCSat 24 Jun 16:28:08 16:30:28 13° 346° (NNW) 16:32:49 145.827
SO-50 24 Jun 16:29:23 16:33:39 38° 319° (NW) 16:37:54 436.795
CUTE-I 24 Jun 16:41:27 16:45:09 19° 56° (ENE) 16:48:51 437.470
NUDT-PHONESAT 24 Jun 16:56:14 16:58:08 14° 61° (ENE) 17:00:03 437.300
MOZHAYETS 4 24 Jun 16:56:25 17:00:54 53° 289° (WNW) 17:05:20
ITUPSAT 1 24 Jun 17:01:18 17:05:43 37° 294° (WNW) 17:10:07 437.325
KKS-1 24 Jun 17:04:35 17:08:29 28° 95° (E) 17:12:22 437.445
XW-2F 24 Jun 17:05:49 17:08:41 20° 65° (ENE) 17:11:33 145.980 - 146.000
XW-2D 24 Jun 17:08:28 17:11:32 23° 66° (ENE) 17:14:36 145.860 - 145.880
BEESAT 24 Jun 17:12:32 17:16:41 30° 296° (WNW) 17:20:48 436.000
LilacSat-2 24 Jun 17:14:35 17:17:52 27° 67° (ENE) 17:21:11 437.200
XW-2B 24 Jun 17:17:10 17:20:27 27° 67° (ENE) 17:23:43 145.730 - 145.750
HO-68 24 Jun 17:28:39 17:34:13 25° 51° (NE) 17:39:45 435.675
XW-2C 24 Jun 17:32:11 17:35:47 39° 70° (ENE) 17:39:23 145.795 - 145.815
CUBESAT XI-V 24 Jun 17:33:06 17:37:43 78° 102° (ESE) 17:42:19 437.345
STARS 24 Jun 17:38:38 17:42:28 28° 95° (E) 17:46:17 437.465
AO-7 24 Jun 17:39:38 17:43:56 15° 276° (W) 17:48:16 .
DOVE 4 24 Jun 17:42:12 17:46:20 78° 256° (WSW) 17:50:41 437.250
KAITUO 1B 24 Jun 17:50:03 17:53:41 48° 72° (ENE) 17:57:21 145.475/437.950
XW-2A 24 Jun 18:09:55 18:11:18 12° 61° (ENE) 18:12:40 145.665 - 145.685
SO-50 24 Jun 18:12:58 18:15:20 14° 342° (NNW) 18:17:41 436.795
PCSat 24 Jun 18:14:13 18:16:25 12° 13° (NNE) 18:18:36 145.827
CUTE-I 24 Jun 18:19:16 18:24:35 79° 256° (WSW) 18:29:59 437.470
NUDT-PHONESAT 24 Jun 18:27:50 18:31:34 63° 258° (WSW) 18:35:20 437.300
XW-2F 24 Jun 18:39:00 18:42:35 38° 262° (W) 18:46:12 145.980 - 146.000
KKS-1 24 Jun 18:40:59 18:45:06 36° 293° (WNW) 18:49:11 437.445
XW-2D 24 Jun 18:42:04 18:45:34 33° 263° (W) 18:49:06 145.860 - 145.880
LilacSat-2 24 Jun 18:48:44 18:52:06 28° 265° (W) 18:55:29 437.200
XW-2B 24 Jun 18:51:14 18:54:35 28° 265° (W) 18:57:57 145.730 - 145.750
SEEDS 24 Jun 18:53:49 18:57:37 34° 68° (ENE) 19:01:26 437.485
CUBEBUG 2 24 Jun 19:04:19 19:08:34 38° 68° (ENE) 19:12:57 437.445
AO-73 24 Jun 19:06:53 19:09:37 16° 59° (ENE) 19:12:22 145.935
XW-2C 24 Jun 19:07:18 19:10:08 19° 268° (W) 19:12:58 145.795 - 145.815
CUTE 1.7 + AOD 2 24 Jun 19:07:59 19:12:14 72° 74° (ENE) 19:16:28 437.475
STRAND 1 24 Jun 19:10:17 19:13:40 17° 89° (E) 19:17:02 437.568
CUBESAT XI-V 24 Jun 19:11:48 19:14:31 16° 302° (WNW) 19:17:13 437.345
HO-68 24 Jun 19:13:55 19:21:08 87° 252° (WSW) 19:28:23 435.675
STARS 24 Jun 19:14:48 19:18:52 36° 293° (WNW) 19:22:55 437.465
RS-15 24 Jun 19:16:33 19:22:18 15° 92° (E) 19:28:04 29.354- 29.394
KAITUO 1B 24 Jun 19:25:38 19:27:58 16° 269° (W) 19:30:18 145.475/437.950
Oscar 11 24 Jun 19:35:09 19:38:25 21° 63° (ENE) 19:41:40 .
ZACube-1 24 Jun 19:39:26 19:43:28 32° 66° (ENE) 19:47:33 437.345
XW-2A 24 Jun 19:40:10 19:43:34 61° 259° (W) 19:47:01 145.665 - 145.685
UWE-3 24 Jun 19:40:46 19:45:14 53° 71° (ENE) 19:49:48 435.000/436.395/437.385
AAUSAT CUBESAT 2 24 Jun 19:48:44 19:52:48 61° 73° (ENE) 19:56:53 437.432
SO-50 24 Jun 19:56:23 19:57:45 11° 7° (N) 19:59:08 436.795
PCSat 24 Jun 19:57:03 20:01:44 28° 38° (NE) 20:06:23 145.827
CUTE-I 24 Jun 20:03:26 20:05:31 12° 275° (W) 20:07:38 437.470
AO-85 24 Jun 20:26:00 20:28:34 17° 114° (ESE) 20:31:07 145.980
SEEDS 24 Jun 20:29:49 20:33:22 26° 266° (W) 20:36:55 437.485
YUBILEINY 24 Jun 20:37:12 20:42:46 19° 73° (ENE) 20:48:20 435.215
AO-73 24 Jun 20:40:43 20:45:15 78° 256° (WSW) 20:49:53 145.935
CUBEBUG 2 24 Jun 20:41:17 20:45:16 28° 267° (W) 20:49:21 437.445
CUTE 1.7 + AOD 2 24 Jun 20:46:33 20:48:34 13° 272° (W) 20:50:35 437.475
STRAND 1 24 Jun 20:48:14 20:53:25 73° 287° (WNW) 20:58:32 437.568
HO-68 24 Jun 21:04:58 21:09:51 19° 273° (W) 21:14:47 435.675
Oscar 11 24 Jun 21:10:01 21:14:14 49° 261° (W) 21:18:29 .
EO-88 24 Jun 21:12:15 21:15:36 34° 69° (ENE) 21:18:57 145.990 - 145.960
BEESAT 3 24 Jun 21:13:49 21:17:13 27° 117° (ESE) 21:20:40 437.485
ZACube-1 24 Jun 21:15:33 21:19:41 33° 265° (W) 21:23:53 437.345
FO-29 24 Jun 21:16:59 21:22:53 23° 86° (E) 21:28:45 435.910
UWE-3 24 Jun 21:18:34 21:22:00 21° 270° (W) 21:25:29 435.000/436.395/437.385
RS-15 24 Jun 21:20:07 21:31:52 59° 116° (ESE) 21:43:49 29.354- 29.394
AAUSAT CUBESAT 2 24 Jun 21:26:21 21:28:39 15° 271° (W) 21:30:59 437.432
DELFI C3 24 Jun 21:27:34 21:31:28 75° 75° (ENE) 21:35:24 145.870
O/OREOS (USA 219) 24 Jun 21:29:03 21:32:46 25° 104° (ESE) 21:36:31 437.305
NO-84 24 Jun 21:30:50 21:32:25 12° 124° (SE) 21:34:02 435.350 FM
SO-50 24 Jun 21:36:14 21:39:51 23° 32° (NNE) 21:43:28 436.795
PCSat 24 Jun 21:40:12 21:45:38 70° 239° (WSW) 21:51:00 145.827
LO-87 24 Jun 21:41:27 21:42:49 12° 60° (ENE) 21:44:11 145.935 - 145.965
ESTCUBE 1 24 Jun 21:43:46 21:45:27 12° 55° (NE) 21:47:08 437.505/2401.250
UNISAT 6 24 Jun 21:56:09 21:59:40 21° 91° (E) 22:03:07 437.425
AO-85 24 Jun 22:04:34 22:08:32 62° 311° (NW) 22:12:27 145.980
BEESAT 2 24 Jun 22:09:27 22:13:06 36° 120° (ESE) 22:16:51 435.950
STRAND 1 24 Jun 22:29:15 22:31:43 14° 307° (NW) 22:34:11 437.568
YUBILEINY 24 Jun 22:29:17 22:38:04 79° 96° (E) 22:46:56 435.215
EO-88 24 Jun 22:46:34 22:49:22 20° 267° (W) 22:52:12 145.990 - 145.960
TIGRISAT 24 Jun 22:50:15 22:54:54 60° 101° (E) 22:59:27 435.000
BEESAT 3 24 Jun 22:50:52 22:54:40 41° 317° (NW) 22:58:31 437.485
M-CUBED/EXP-1 PRIME 24 Jun 22:55:01 22:58:38 86° 290° (WNW) 23:02:32 437.505
FO-29 24 Jun 23:00:58 23:08:46 89° 106° (ESE) 23:16:39 435.910
PRISM 24 Jun 23:05:01 23:09:08 89° 105° (ESE) 23:13:16 437.425
NO-84 24 Jun 23:05:11 23:09:12 62° 143° (SE) 23:13:28 435.350 FM
DELFI C3 24 Jun 23:05:44 23:06:45 11° 273° (W) 23:07:46 145.870
O/OREOS (USA 219) 24 Jun 23:07:39 23:11:58 42° 303° (WNW) 23:16:18 437.305
LO-87 24 Jun 23:12:12 23:15:44 67° 258° (WSW) 23:19:20 145.935 - 145.965
SO-50 24 Jun 23:16:18 23:20:51 82° 233° (SW) 23:25:24 436.795
ESTCUBE 1 24 Jun 23:17:00 23:21:30 79° 74° (ENE) 23:26:01 437.505/2401.250
VELOX 1 24 Jun 23:24:43 23:28:24 27° 64° (ENE) 23:32:07 145.980
PCSat 24 Jun 23:26:11 23:28:02 12° 258° (WSW) 23:29:51 145.827
UNISAT 6 24 Jun 23:32:07 23:36:42 53° 289° (WNW) 23:41:10 437.425
RS-15 24 Jun 23:32:27 23:44:36 60° 322° (NW) 23:56:49 29.354- 29.394
EO-79 24 Jun 23:35:54 23:38:11 14° 89° (E) 23:40:29 145.935-145.965
BEESAT 2 24 Jun 23:47:14 23:50:54 33° 319° (NW) 23:54:37 435.950
AO-85 24 Jun 23:47:29 23:49:43 14° 334° (NNW) 23:51:56 145.980
DX 1 24 Jun 23:49:01 23:51:59 18° 60° (ENE) 23:54:59 434.975-435.025
DUCHIFAT 1 24 Jun 23:51:01 23:53:44 16° 90° (E) 23:56:26 145.980
SPROUT 24 Jun 23:54:12 23:58:21 52° 71° (ENE) 00:02:32 437.525
NANOSAT C BR1 24 Jun 23:58:26 00:01:45 21° 92° (E) 00:05:02 145.865
UKube-1 25 Jun 00:08:25 00:11:31 20° 61° (ENE) 00:14:37 .
AIST 2D 25 Jun 00:11:02 00:14:33 66° 102° (ESE) 00:18:00 435.315
TIGRISAT 25 Jun 00:27:45 00:31:09 20° 300° (WNW) 00:34:30 435.000
YUBILEINY 25 Jun 00:28:31 00:35:54 29° 300° (WNW) 00:43:21 435.215
BEESAT 3 25 Jun 00:31:36 00:33:18 12° 338° (NNW) 00:35:00 437.485
M-CUBED/EXP-1 PRIME 25 Jun 00:31:58 00:32:36 10° 307° (NW) 00:33:15 437.505
POLYITAN 1 25 Jun 00:34:26 00:38:40 53° 100° (E) 00:42:50 437.675
PRISM 25 Jun 00:42:16 00:43:47 12° 303° (WNW) 00:45:19 437.425
50 SAT 25 Jun 00:42:19 00:45:41 77° 74° (ENE) 00:49:05 437.505
NO-84 25 Jun 00:42:56 00:46:59 45° 344° (NNW) 00:51:11 435.350 FM
QB50P2 25 Jun 00:45:09 00:49:28 75° 103° (ESE) 00:53:44 145.880/145.840
FO-29 25 Jun 00:46:52 00:52:55 26° 306° (NW) 00:59:06 435.910
ESTCUBE 1 25 Jun 00:56:46 00:58:53 13° 272° (W) 01:00:59 437.505/2401.250
SO-50 25 Jun 00:58:47 01:00:35 12° 251° (WSW) 01:02:23 436.795
VELOX 1 25 Jun 01:00:41 01:04:44 37° 263° (W) 01:08:49 145.980
BUGSAT 1 25 Jun 01:04:57 01:08:43 29° 95° (E) 01:12:26 437.445
EO-79 25 Jun 01:10:09 01:14:26 68° 286° (WNW) 01:18:39 145.935-145.965
BEESAT 25 Jun 01:10:26 01:12:11 12° 53° (NE) 01:13:56 436.000
DX 1 25 Jun 01:23:31 01:27:47 58° 259° (W) 01:32:04 434.975-435.025
DUCHIFAT 1 25 Jun 01:25:34 01:29:46 57° 288° (WNW) 01:33:55 145.980
BEESAT 2 25 Jun 01:28:40 01:29:52 11° 342° (NNW) 01:31:03 435.950
SPROUT 25 Jun 01:31:38 01:34:34 18° 269° (W) 01:37:32 437.525
NANOSAT C BR1 25 Jun 01:33:35 01:37:39 43° 290° (WNW) 01:41:40 145.865
Oscar 19 25 Jun 01:42:11 01:46:39 29° 95° (E) 01:51:05 437.125/150
UKube-1 25 Jun 01:43:00 01:47:12 53° 260° (W) 01:51:25 .
AIST 2D 25 Jun 01:46:02 01:47:15 11° 299° (WNW) 01:48:27 435.315
RS-15 25 Jun 01:48:55 02:00:12 38° 354° (N) 02:11:18 29.354- 29.394
POLYITAN 1 25 Jun 02:11:01 02:14:05 19° 299° (WNW) 02:17:09 437.675
NO-84 25 Jun 02:21:16 02:25:16 36° 5° (N) 02:29:21 435.350 FM
QB50P2 25 Jun 02:22:18 02:24:43 15° 301° (WNW) 02:27:07 145.880/145.840
MOZHAYETS 4 25 Jun 02:25:14 02:29:17 31° 65° (ENE) 02:33:20
Gurwin Techsat 1B 25 Jun 02:26:36 02:31:44 45° 99° (E) 02:36:49 435.225
ITUPSAT 1 25 Jun 02:33:42 02:38:24 56° 70° (ENE) 02:43:07 437.325
BUGSAT 1 25 Jun 02:40:16 02:44:04 32° 293° (WNW) 02:47:49 437.445
BEESAT 25 Jun 02:44:21 02:49:06 70° 72° (ENE) 02:53:54 436.000
CUBESAT XI-V 25 Jun 03:04:39 03:07:38 17° 59° (ENE) 03:10:38 437.345
AO-85 25 Jun 03:12:06 03:14:06 13° 24° (NNE) 03:16:09 145.980
Oscar 19 25 Jun 03:21:17 03:26:07 43° 293° (WNW) 03:30:56 437.125/150
AO-7 25 Jun 03:38:34 03:46:02 34° 95° (E) 03:53:26 .
BEESAT 3 25 Jun 03:49:40 03:52:02 15° 26° (NNE) 03:54:24 437.485
ITAMSAT 1 25 Jun 03:56:16 04:01:12 40° 98° (E) 04:06:07 435.822/435.867
NO-84 25 Jun 03:59:03 04:03:26 66° 26° (NNE) 04:07:46 435.350 FM
MOZHAYETS 4 25 Jun 04:02:05 04:06:22 36° 264° (W) 04:10:39
RS-15 25 Jun 04:04:31 04:16:22 48° 27° (NNE) 04:27:45 29.354- 29.394
KKS-1 25 Jun 04:06:01 04:10:11 42° 68° (ENE) 04:14:24 437.445
Gurwin Techsat 1B 25 Jun 04:06:54 04:11:31 31° 298° (WNW) 04:16:06 435.225
ITUPSAT 1 25 Jun 04:12:57 04:16:33 21° 268° (W) 04:20:11 437.325
BEESAT 25 Jun 04:24:23 04:27:23 16° 271° (W) 04:30:24 436.000
STARS 25 Jun 04:38:35 04:42:41 40° 67° (ENE) 04:46:48 437.465
CUBESAT XI-V 25 Jun 04:39:52 04:44:30 71° 257° (WSW) 04:49:08 437.345
BEESAT 2 25 Jun 04:46:07 04:48:55 18° 30° (NNE) 04:51:43 435.950
AO-85 25 Jun 04:51:26 04:55:24 50° 46° (NE) 04:59:32 145.980
BEESAT 3 25 Jun 05:26:25 05:30:26 60° 48° (NE) 05:34:22 437.485
AO-7 25 Jun 05:31:03 05:39:20 66° 296° (WNW) 05:47:34 .
ITAMSAT 1 25 Jun 05:35:55 05:40:35 33° 297° (WNW) 05:45:14 435.822/435.867
DOVE 4 25 Jun 05:36:33 05:40:26 23° 92° (E) 05:44:26 437.250
NO-84 25 Jun 05:36:55 05:40:52 33° 225° (SW) 05:44:42 435.350 FM
KKS-1 25 Jun 05:43:21 05:46:56 24° 267° (W) 05:50:32 437.445
O/OREOS (USA 219) 25 Jun 05:55:51 05:58:44 16° 44° (NE) 06:01:36 437.305
XW-2F 25 Jun 06:07:54 06:10:19 16° 91° (E) 06:12:43 145.980 - 146.000
XW-2D 25 Jun 06:11:00 06:13:44 19° 92° (E) 06:16:27 145.860 - 145.880
STARS 25 Jun 06:15:33 06:19:09 24° 266° (W) 06:22:47 437.465
RS-15 25 Jun 06:17:50 06:30:06 81° 236° (SW) 06:41:43 29.354- 29.394
LilacSat-2 25 Jun 06:17:54 06:20:58 23° 93° (E) 06:24:01 437.200
XW-2B 25 Jun 06:19:45 06:22:47 22° 93° (E) 06:25:47 145.730 - 145.750
BEESAT 2 25 Jun 06:23:14 06:27:20 80° 51° (NE) 06:31:22 435.950
STRAND 1 25 Jun 06:29:25 06:34:05 37° 65° (ENE) 06:38:49 437.568
AO-85 25 Jun 06:32:17 06:35:32 23° 244° (WSW) 06:38:56 145.980
CUTE-I 25 Jun 06:32:33 06:37:18 31° 95° (E) 06:42:01 437.470
XW-2C 25 Jun 06:34:54 06:38:21 33° 96° (E) 06:41:46 145.795 - 145.815
HO-68 25 Jun 06:39:25 06:43:05 14° 84° (E) 06:46:44 435.675
YUBILEINY 25 Jun 06:39:56 06:43:40 13° 44° (NE) 06:47:23 435.215
KAITUO 1B 25 Jun 06:51:13 06:54:45 39° 98° (E) 06:58:13 145.475/437.950
BEESAT 3 25 Jun 07:04:52 07:07:36 18° 247° (WSW) 07:10:18 437.485
DOVE 4 25 Jun 07:13:40 07:18:21 52° 289° (WNW) 07:23:15 437.250
AO-7 25 Jun 07:24:56 07:30:39 21° 319° (NW) 07:36:22 .
NUDT-PHONESAT 25 Jun 07:28:06 07:31:50 78° 285° (WNW) 07:35:31 437.300
O/OREOS (USA 219) 25 Jun 07:34:17 07:38:47 85° 245° (WSW) 07:43:16 437.305
FO-29 25 Jun 07:35:49 07:39:28 16° 45° (NE) 07:43:19 435.910
XW-2F 25 Jun 07:41:06 07:44:43 45° 289° (WNW) 07:48:17 145.980 - 146.000
XW-2D 25 Jun 07:44:33 07:48:05 38° 290° (WNW) 07:51:35 145.860 - 145.880
LilacSat-2 25 Jun 07:51:54 07:55:19 32° 292° (WNW) 07:58:41 437.200
XW-2B 25 Jun 07:53:38 07:57:03 32° 291° (WNW) 08:00:24 145.730 - 145.750
BEESAT 2 25 Jun 08:02:29 08:04:30 13° 249° (WSW) 08:06:31 435.950
STRAND 1 25 Jun 08:08:36 08:13:17 35° 264° (W) 08:18:01 437.568
SEEDS 25 Jun 08:08:49 08:12:43 38° 97° (E) 08:16:36 437.485
XW-2C 25 Jun 08:09:23 08:12:24 23° 295° (WNW) 08:15:22 145.795 - 145.815
M-CUBED/EXP-1 PRIME 25 Jun 08:11:36 08:14:06 20° 59° (ENE) 08:16:36 437.505
CUTE-I 25 Jun 08:12:24 08:17:29 44° 294° (WNW) 08:22:33 437.470
TIGRISAT 25 Jun 08:18:42 08:20:47 13° 55° (NE) 08:22:52 435.000
CUTE 1.7 + AOD 2 25 Jun 08:24:33 08:28:47 85° 100° (E) 08:32:59 437.475
HO-68 25 Jun 08:24:55 08:32:08 71° 104° (ESE) 08:39:16 435.675
PRISM 25 Jun 08:25:00 08:26:57 13° 58° (ENE) 08:28:55 437.425
KAITUO 1B 25 Jun 08:25:49 08:28:30 19° 296° (WNW) 08:31:11 145.475/437.950
AO-73 25 Jun 08:25:57 08:28:47 16° 89° (E) 08:31:35 145.935
Tancredo 1 25 Jun 08:26:29 08:28:36 17° 140° (SE) 08:30:42 437.200
CUBEBUG 2 25 Jun 08:27:18 08:31:56 50° 99° (E) 08:36:27 437.445
XW-2A 25 Jun 08:30:43 08:34:09 80° 101° (E) 08:37:33 145.665 - 145.685
RS-15 25 Jun 08:31:46 08:40:37 25° 261° (W) 08:49:11 29.354- 29.394
YUBILEINY 25 Jun 08:34:43 08:43:16 49° 71° (ENE) 08:51:43 435.215
ISS 25 Jun 08:36:57 08:38:33 13° 136° (SE) 08:40:10 437.550
Oscar 11 25 Jun 08:53:35 08:57:03 23° 93° (E) 09:00:29 .
UNISAT 6 25 Jun 08:58:15 09:02:13 29° 64° (ENE) 09:06:14 437.425
ZACube-1 25 Jun 08:59:35 09:03:47 37° 96° (E) 09:07:52 437.345
AAUSAT CUBESAT 2 25 Jun 09:02:03 09:06:10 67° 101° (E) 09:10:15 437.432
UWE-3 25 Jun 09:02:41 09:07:19 68° 101° (E) 09:11:49 435.000/436.395/437.385
O/OREOS (USA 219) 25 Jun 09:16:34 09:17:24 10° 264° (W) 09:18:13 437.305
FO-29 25 Jun 09:16:57 09:23:01 62° 68° (ENE) 09:29:57 435.910
SEEDS 25 Jun 09:44:53 09:48:14 24° 295° (WNW) 09:51:34 437.485
M-CUBED/EXP-1 PRIME 25 Jun 09:45:35 09:48:28 28° 257° (WSW) 09:51:21 437.505
TIGRISAT 25 Jun 09:52:04 09:56:41 81° 74° (ENE) 10:01:24 435.000
PRISM 25 Jun 09:57:38 10:01:41 77° 256° (WSW) 10:05:46 437.425
Tancredo 1 25 Jun 10:00:47 10:03:49 86° 158° (SSE) 10:06:52 437.200
AO-73 25 Jun 10:01:01 10:05:28 61° 287° (WNW) 10:09:46 145.935
CUTE 1.7 + AOD 2 25 Jun 10:02:09 10:04:00 13° 302° (WNW) 10:05:49 437.475
CUBEBUG 2 25 Jun 10:04:29 10:08:14 24° 298° (WNW) 10:11:55 437.445
QB50P2 25 Jun 10:08:21 10:10:09 12° 57° (ENE) 10:11:56 145.880/145.840
EO-88 25 Jun 10:10:42 10:13:48 25° 95° (E) 10:16:51 145.990 - 145.960
ISS 25 Jun 10:11:16 10:14:31 64° 154° (SSE) 10:17:47 437.550
HO-68 25 Jun 10:13:18 10:19:20 30° 305° (NW) 10:25:20 435.675
Oscar 11 25 Jun 10:29:17 10:33:20 41° 291° (WNW) 10:37:23 .
EO-79 25 Jun 10:31:43 10:34:41 19° 61° (ENE) 10:37:39 145.935-145.965
YUBILEINY 25 Jun 10:31:48 10:40:03 46° 273° (W) 10:48:13 435.215
UNISAT 6 25 Jun 10:34:28 10:38:47 39° 263° (W) 10:43:11 437.425
DELFI C3 25 Jun 10:35:10 10:39:06 73° 102° (ESE) 10:43:03 145.870
ZACube-1 25 Jun 10:36:06 10:39:55 27° 295° (WNW) 10:43:39 437.345
AAUSAT CUBESAT 2 25 Jun 10:38:49 10:41:08 15° 300° (WNW) 10:43:27 437.432
UWE-3 25 Jun 10:40:12 10:43:15 18° 301° (WNW) 10:46:16 435.000/436.395/437.385
DUCHIFAT 1 25 Jun 10:46:16 10:49:26 21° 62° (ENE) 10:52:37 145.980
AIST 2D 25 Jun 10:48:45 10:52:07 42° 71° (ENE) 10:55:30 435.315
NANOSAT C BR1 25 Jun 10:53:57 10:57:30 27° 65° (ENE) 11:01:05 145.865
FO-29 25 Jun 11:03:25 11:08:39 28° 271° (W) 11:14:27 435.910
ESTCUBE 1 25 Jun 11:07:15 11:09:13 13° 87° (E) 11:11:10 437.505/2401.250
Oscar 19 25 Jun 11:27:34 11:29:20 12° 51° (NE) 11:31:06 437.125/150
POLYITAN 1 25 Jun 11:30:14 11:34:28 65° 72° (ENE) 11:38:44 437.675
TIGRISAT 25 Jun 11:31:39 11:33:59 14° 273° (W) 11:36:19 435.000
Tancredo 1 25 Jun 11:36:38 11:39:35 45° 357° (N) 11:42:32 437.200
QB50P2 25 Jun 11:40:59 11:45:16 89° 60° (ENE) 11:49:35 145.880/145.840
EO-88 25 Jun 11:44:19 11:47:26 27° 293° (WNW) 11:50:33 145.990 - 145.960
ISS 25 Jun 11:47:52 11:51:06 51° 354° (N) 11:54:20 437.550
BUGSAT 1 25 Jun 11:58:03 12:01:47 34° 67° (ENE) 12:05:36 437.445
EO-79 25 Jun 12:05:53 12:10:03 56° 259° (W) 12:14:17 145.935-145.965
LO-87 25 Jun 12:08:28 12:12:08 87° 102° (ESE) 12:15:47 145.935 - 145.965
DELFI C3 25 Jun 12:11:30 12:13:21 13° 300° (WNW) 12:15:13 145.870
Gurwin Techsat 1B 25 Jun 12:13:57 12:17:34 19° 56° (ENE) 12:21:11 435.225
DUCHIFAT 1 25 Jun 12:20:43 12:24:48 47° 261° (W) 12:28:57 145.980
AIST 2D 25 Jun 12:23:19 12:25:32 16° 269° (W) 12:27:44 435.315
PCSat 25 Jun 12:25:24 12:30:36 48° 116° (ESE) 12:35:49 145.827
NANOSAT C BR1 25 Jun 12:29:11 12:33:05 35° 263° (W) 12:37:02 145.865
ESTCUBE 1 25 Jun 12:42:06 12:46:37 81° 286° (WNW) 12:51:05 437.505/2401.250
VELOX 1 25 Jun 12:46:24 12:50:19 30° 96° (E) 12:54:13 145.980
AO-7 25 Jun 12:52:43 12:58:21 21° 41° (NE) 13:03:59 .
Oscar 19 25 Jun 13:02:36 13:07:41 63° 71° (ENE) 13:12:46 437.125/150
POLYITAN 1 25 Jun 13:08:15 13:10:41 15° 271° (W) 13:13:08 437.675
DX 1 25 Jun 13:08:25 13:11:26 18° 91° (E) 13:14:28 434.975-435.025
SPROUT 25 Jun 13:11:30 13:15:47 59° 101° (E) 13:20:02 437.525
Tancredo 1 25 Jun 13:12:22 13:15:25 72° 17° (NNE) 13:18:28 437.200
QB50P2 25 Jun 13:20:50 13:21:42 10° 274° (W) 13:22:34 145.880/145.840
ISS 25 Jun 13:24:35 13:27:52 61° 13° (NNE) 13:31:09 437.550
UKube-1 25 Jun 13:26:37 13:29:42 19° 92° (E) 13:32:48 .
50 SAT 25 Jun 13:33:35 13:36:52 42° 100° (E) 13:40:07 437.505
BUGSAT 1 25 Jun 13:33:42 13:37:12 26° 266° (W) 13:40:46 437.445
SO-50 25 Jun 13:36:58 13:38:39 12° 109° (ESE) 13:40:19 436.795
ITAMSAT 1 25 Jun 13:41:15 13:44:26 17° 55° (NE) 13:47:38 435.822/435.867
Gurwin Techsat 1B 25 Jun 13:51:35 13:56:54 81° 256° (WSW) 14:02:16 435.225
PCSat 25 Jun 14:09:10 14:14:10 36° 317° (NW) 14:19:12 145.827
ESTCUBE 1 25 Jun 14:20:56 14:22:40 12° 305° (NW) 14:24:26 437.505/2401.250
VELOX 1 25 Jun 14:22:48 14:26:47 33° 294° (WNW) 14:30:44 145.980
ITUPSAT 1 25 Jun 14:33:23 14:33:55 10° 85° (E) 14:34:26 437.325
AO-7 25 Jun 14:41:27 14:49:39 65° 63° (ENE) 14:57:53 .
BEESAT 25 Jun 14:42:10 14:44:26 13° 87° (E) 14:46:41 436.000
Oscar 19 25 Jun 14:43:40 14:47:26 20° 269° (W) 14:51:13 437.125/150
DX 1 25 Jun 14:43:40 14:47:57 54° 289° (WNW) 14:52:12 434.975-435.025
Tancredo 1 25 Jun 14:48:12 14:50:48 26° 216° (SW) 14:53:25 437.200
SPROUT 25 Jun 14:48:22 14:51:16 18° 299° (WNW) 14:54:11 437.525
ISS 25 Jun 15:01:10 15:04:18 39° 212° (SSW) 15:07:23 437.550
UKube-1 25 Jun 15:01:49 15:06:01 51° 290° (WNW) 15:10:13 .
50 SAT 25 Jun 15:07:18 15:09:21 15° 297° (WNW) 15:11:25 437.505
SO-50 25 Jun 15:13:49 15:18:22 80° 125° (SE) 15:22:54 436.795
ITAMSAT 1 25 Jun 15:17:59 15:23:11 89° 90° (E) 15:28:27 435.822/435.867
